Regional Weather Roundup
Issued by NWS

Home | Current Version | Previous Version | Text Only | Print | Product List | Glossary Off
Versions: 1 2 3 4 5 6 7 8 9 10 11 12 13 14 15 16 17 18 19 20 21 22 23 24 25 26 27 28 29 30 31 32 33 34 35 36 37 38 39 40 41 42 43 44 45 46 47 48 49 50

000
ASUS45 KABQ 290101
RWRNM
WEATHER ROUNDUP FOR NEW MEXICO
NATIONAL WEATHER SERVICE ALBUQUERQUE NM
700 PM MDT SAT MAR 28 2015

NOTE: "FAIR" MEANS FEW OR NO CLOUDS BELOW 12,000 FEET AGL WITH NO
       SIGNIFICANT WEATHER OR OBSTRUCTIONS TO VISION.

      THIS PRODUCT IS RELEASED AS TWO VERSIONS.  ONE VERSION NEAR
      THE TOP OF THE HOUR CONTAINING PRELIMINARY DATA FROM ALBUQUERQUE
      AND OTHER STATIONS.  A FINAL VERSION WITH ADDITIONAL DATA IS
      ISSUED ABOUT 10 MINUTES AFTER THE HOUR.

NMZ501-503-504-510>518-290200-
NORTHWEST PLATEAU/NORTHCENTRAL MOUNTAINS

CITY           SKY/WX    TMP DP  RH WIND       PRES   REMARKS
FARMINGTON     CLEAR     72  15  11 NW12      30.10S
LOS ALAMOS     CLEAR     67  10  11 SW12      30.20R
SANTA FE       CLEAR     71   7   8 NW13      30.12R
TAOS           CLEAR     64  14  14 NW12      30.18R
ANGEL FIRE     FAIR      59  17  20 W14G20    30.23S

$$
NMZ402-403-502-505>509-290200-
WESTCENTRAL MOUNTAINS/SOUTHWEST MOUNTAINS

CITY           SKY/WX    TMP DP  RH WIND       PRES   REMARKS
GALLUP         CLEAR     70   6   8 W18       30.20R
GRANTS         PTCLDY    69   4   8 W12       30.20S

$$
NMZ407-409-411-412-290200-
SOUTHERN DESERTS

CITY           SKY/WX    TMP DP  RH WIND       PRES   REMARKS
LORDSBURG      FAIR      79  10   7 NW12      30.11S
DEMING         CLEAR     80   3   5 W16       30.09S
LAS CRUCES     CLEAR     81   0   4 W17G26    30.08S
ALAMOGORDO     CLEAR     77  19  11 S3        30.05S
T OR C         CLEAR     82  11   7 S7        30.05S

$$
NMZ519>523-290200-
CENTRAL VALLEYS/CENTRAL HIGHLANDS

CITY           SKY/WX    TMP DP  RH WIND       PRES   REMARKS
ALBUQUERQUE    CLEAR     78  14   9 W9        30.08S
DOUBLE EAGLE   CLEAR     73   9   8 W16       30.12R
MORIARTY ARPT  FAIR      71  11  10 W12       30.14S
CLINES CORNERS CLEAR     67  14  13 W16       30.16S
BELEN          FAIR      77   3   6 W13       30.09R
SOCORRO        FAIR      80   4   5 NW16G26   30.07R

$$
NMZ524>526-539-540-290200-
SOUTHCENTRAL MOUNTAINS

CITY           SKY/WX    TMP DP  RH WIND       PRES   REMARKS
RUIDOSO        NOT AVBL

$$
NMZ527>531-290200-
NORTHEAST HIGHLANDS/NORTHEAST PLAINS

CITY           SKY/WX    TMP DP  RH WIND       PRES   REMARKS
LAS VEGAS      CLEAR     67  14  13 NW10      30.14R
RATON          CLEAR     69  12  11 W12       30.05S
CLAYTON        CLEAR     69  22  16 S10       30.00S

$$
NMZ532>537-290200-
EASTCENTRAL PLAINS

CITY           SKY/WX    TMP DP  RH WIND       PRES   REMARKS
TUCUMCARI      CLEAR     75  21  13 SE8       29.97F
CANNON AFB     NOT AVBL
CLOVIS AIRPORT CLEAR     75  25  15 S6        30.02S

$$
NMZ028-029-538-290200-
SOUTHEAST PLAINS

CITY           SKY/WX    TMP DP  RH WIND       PRES   REMARKS
ROSWELL        CLEAR     81  32  17 CALM      29.99R
ARTESIA        CLEAR     82  27  13 CALM      29.99S
CARLSBAD       CLEAR     80  33  18 S7        29.97S
HOBBS          CLEAR     77  23  13 NW5       30.02R


$$


USA.gov is the U.S. government's official web portal to all federal, state and local government web resources and services.